Flag for Hungary Weather past 2 weeks in Budapest, Hungary

Now
72 °F

Scattered clouds.


Feels Like: 76 °F
Forecast: 57 / 77 °F
Wind: 9 mph from Southeast

Location: Ferenc Liszt International Airport

Current Time: Sep 19, 2014 at 4:27:22 PM

Latest Report: Sep 19, 2014 at 4:00 PM


Visibility: N/A

Pressure: 30.07 "Hg

Humidity: 61%

Dew point: 57 °F

Location of BudapestLocation

Historic Weather in Budapest — Graph

°F

Budapest temperature yesterday

Maximum temperature yesterday: 72 °F (at 1:30 PM)
Minimum temperature yesterday: 52 °F (at 5:00 AM)
Average temperature yesterday: 61 °F

Past Weeks' High & Low Weather Summary

 TemperatureHumidityPressure
High79 °F (Sep 8, 3:30 PM)100% (Sep 6, 12:30 AM)30.15 "Hg (Sep 6, 12:30 AM)
Low52 °F (Sep 9, 5:30 AM)44% (Sep 18, 5:00 PM)29.80 "Hg (Sep 11, 8:00 PM)
Average65 °F84%30.01 "Hg
* Reported Sep 4 3:00 PM — Sep 19 3:30 PM, Budapest, Weather by CustomWeather, © 2014

Note: Actual official high and low records may vary slightly from our data, if they occured in-between our weather recording intervals... More about our weather records

Advertising

Budapest weather history for previous 24 hours

 ConditionsComfort  
Time TempWeatherWind HumidityBarometerVisibility
3:30 PM
Sep 19
72 °FPassing clouds.9 mph61%30.09 "HgN/A
3:00 PM72 °FPassing clouds.9 mph61%30.09 "HgN/A
2:30 PM72 °FPassing clouds.9 mph57%30.09 "HgN/A
2:00 PM70 °FScattered clouds.10 mph60%30.09 "HgN/A
1:30 PM70 °FScattered clouds.10 mph60%30.09 "HgN/A
1:00 PM68 °FPartly sunny.10 mph64%30.09 "HgN/A
12:30 PM66 °FSunny.9 mph64%30.12 "Hg10 mi
12:00 PM64 °FPassing clouds.9 mph68%30.12 "HgN/A
11:30 AM64 °FPassing clouds.9 mph68%30.12 "HgN/A
11:00 AM64 °FSunny.9 mph68%30.12 "Hg10 mi
10:30 AM63 °FPartly sunny.9 mph68%30.15 "HgN/A
10:00 AM61 °FSunny.12 mph72%30.15 "Hg10 mi
9:30 AM63 °FPassing clouds.10 mph73%30.15 "HgN/A
9:00 AM59 °FSunny.10 mph77%30.12 "Hg10 mi
8:30 AM59 °FSunny.10 mph77%30.12 "Hg10 mi
8:00 AM57 °FSunny.9 mph82%30.12 "Hg10 mi
7:30 AM57 °FSunny.9 mph77%30.12 "Hg10 mi
7:00 AM55 °FClear.9 mph82%30.12 "Hg10 mi
6:30 AM55 °FClear.8 mph82%30.12 "Hg10 mi
6:00 AM54 °FClear.8 mph88%30.12 "Hg10 mi
5:00 AM54 °FClear.7 mph88%30.12 "Hg10 mi
4:30 AM55 °FClear.5 mph82%30.12 "Hg10 mi
4:00 AM54 °FClear.5 mph88%30.12 "Hg10 mi
3:30 AM55 °FClear.6 mph82%30.12 "Hg10 mi
3:00 AM55 °FClear.5 mph82%30.12 "Hg10 mi
2:30 AM55 °FClear.5 mph82%30.12 "Hg10 mi
2:00 AM55 °FClear.6 mph82%30.15 "Hg10 mi
1:30 AM55 °FClear.3 mph82%30.15 "Hg10 mi
1:00 AM55 °FClear.3 mph82%30.15 "Hg10 mi
12:30 AM57 °FClear.3 mph82%30.15 "Hg10 mi
12:00 AM57 °FClear.7 mph82%30.15 "Hg10 mi
11:30 PM
Sep 18
57 °FClear.6 mph77%30.15 "Hg10 mi
11:00 PM59 °FClear.7 mph77%30.15 "Hg10 mi
10:30 PM57 °FClear.5 mph82%30.15 "Hg10 mi
10:00 PM57 °FClear.5 mph82%30.15 "Hg10 mi
9:30 PM59 °FClear.5 mph77%30.15 "Hg10 mi
9:00 PM59 °FClear.6 mph77%30.15 "Hg10 mi
8:30 PM61 °FClear.5 mph72%30.15 "Hg10 mi
8:00 PM61 °FClear.6 mph77%30.12 "Hg10 mi
7:30 PM61 °FSunny.5 mph72%30.12 "Hg10 mi
7:00 PM63 °FSunny.5 mph73%30.12 "Hg10 mi
6:30 PM64 °FSunny.5 mph68%30.12 "Hg10 mi
6:00 PM68 °FSunny.6 mph60%30.12 "Hg10 mi
5:30 PM70 °FSunny.8 mph53%30.12 "Hg10 mi
5:00 PM72 °FSunny.12 mph44%30.12 "Hg10 mi
4:30 PM72 °FSunny.9 mph47%30.12 "Hg10 mi
4:00 PM72 °FSunny.10 mph47%30.12 "Hg10 mi
Weather by CustomWeather, © 2014

See weather overviewHow to use our weather pages